Temperature
9 9 9 9 9 9 10 10 9 8 8 9 9 9 9 9 9 8 8 7 7 7 6 6 6 5 5 4 4 3 2 2 2 1 1 1 1 0
9 9 9 9 9 9 9 9 9 9 9 9 9 9 9 9 8 8 7 7 7 7 6 6 5 5 4 4 3 3 2 2 1 1 1 0 0 0
9 9 9 9 9 9 9 9 9 9 9 9 9 9 9 8 8 8 7 7 7 6 6 5 5 4 4 4 3 2 2 1 1 0 0 -0 -0 -1
9 9 9 9 9 9 9 9 9 9 9 9 9 8 8 8 8 7 7 7 6 6 5 5 4 4 4 3 3 2 2 1 1 0 -0 -0 -1 -1
8 8 8 8 8 8 9 9 9 9 9 9 8 8 8 8 7 7 7 6 6 5 5 4 4 4 3 3 2 2 1 1 0 -0 -1 -1 -1 -2
8 8 8 8 9 8 8 8 8 8 8 8 8 8 8 8 7 7 6 6 5 5 5 4 4 3 3 2 2 1 1 0 -0 -0 -1 -1 -2 -2
8 8 8 8 9 8 8 8 8 8 8 8 8 8 7 7 7 7 6 6 5 5 4 4 3 3 3 2 2 1 0 0 -0 -1 -1 -2 -2 -2
8 8 8 8 8 8 8 8 8 8 8 8 8 7 7 7 7 6 6 5 5 4 4 4 3 3 2 2 1 1 0 -0 -1 -1 -1 -2 -2 -3
8 8 8 8 8 8 8 8 8 8 8 8 8 7 7 7 7 6 6 5 5 4 4 3 3 2 2 1 1 0 -0 -1 -1 -1 -2 -2 -2 -3
8 8 8 8 8 8 8 8 8 7 7 7 7 7 7 7 6 6 6 5 4 4 3 3 3 2 1 1 0 -0 -1 -1 -1 -2 -2 -2 -3 -3
7 8 8 8 8 8 7 7 7 7 7 7 7 7 6 6 6 6 5 4 4 3 3 2 2 2 1 1 -0 -1 -1 -1 -1 -2 -2 -2 -3 -3
7 7 8 8 8 7 7 7 7 7 7 7 6 6 6 6 5 5 5 4 4 3 2 2 2 1 0 0 -0 -1 -1 -1 -2 -2 -2 -2 -3 -3
6 7 7 7 7 7 7 7 7 7 7 6 6 6 5 5 5 4 4 4 3 3 2 2 1 1 -0 -0 -1 -1 -1 -2 -2 -2 -2 -3 -3 -3
6 7 7 7 7 7 7 7 7 6 6 6 6 5 5 5 4 4 3 3 3 2 2 1 1 0 -0 -1 -1 -1 -2 -2 -2 -2 -3 -3 -3 -3
6 7 7 7 7 6 6 6 6 6 6 6 5 5 5 4 4 3 3 3 2 2 1 1 0 -0 -1 -1 -1 -2 -2 -2 -2 -3 -3 -3 -3 -3
6 6 6 6 6 6 6 6 6 6 5 5 5 5 4 4 3 3 3 2 2 1 1 0 -0 -0 -1 -1 -2 -2 -2 -3 -3 -3 -3 -3 -3 -4
5 5 5 5 5 5 5 5 5 5 5 5 5 4 4 3 3 3 2 2 1 1 0 0 -0 -1 -1 -2 -2 -2 -2 -3 -3 -3 -3 -3 -3 -4
5 5 5 5 5 5 5 5 5 5 5 5 4 4 3 3 3 2 2 1 1 1 0 -0 -0 -1 -1 -2 -2 -2 -3 -3 -3 -3 -3 -3 -3 -4
5 5 5 5 5 5 5 5 5 5 5 4 4 4 3 3 2 2 1 1 1 0 -0 -1 -1 -1 -1 -2 -2 -3 -3 -3 -3 -3 -3 -4 -4 -4
5 5 5 5 5 5 5 5 5 4 4 4 4 3 3 2 2 1 1 1 0 -0 -1 -1 -1 -1 -2 -2 -3 -3 -3 -3 -3 -3 -3 -4 -4 -4
5 5 5 5 5 5 4 4 4 4 4 4 3 3 3 2 2 1 1 0 -0 -1 -1 -1 -1 -2 -2 -2 -3 -3 -3 -3 -4 -4 -4 -4 -4 -4
4 5 5 5 5 4 4 4 4 4 4 3 3 2 2 2 1 1 0 0 -0 -1 -1 -1 -2 -2 -2 -2 -3 -3 -3 -4 -4 -4 -4 -4 -5 -5
4 4 4 4 4 4 4 4 4 4 3 3 3 2 2 2 1 1 0 -0 -1 -1 -1 -2 -2 -2 -2 -3 -3 -3 -4 -4 -4 -4 -4 -4 -5 -5
Wind_Speed
13 13 10 7 7 6 6 6 7 5 5 5 3 4 6 7 8 8 7 7 6 5 5 5 5 5 5 6 7 8 9 10 11 12 14 15 16 17
11 12 11 8 8 6 7 6 5 5 5 4 3 3 5 6 8 7 7 7 6 5 5 4 4 4 4 5 6 7 8 9 11 12 13 14 16 17
11 13 12 10 9 7 6 6 5 5 5 2 2 2 4 5 4 5 6 5 4 4 4 3 3 2 3 4 6 7 8 9 11 12 13 14 16 16
13 13 13 11 11 9 8 8 7 6 5 5 3 3 3 4 4 4 3 4 3 3 3 3 2 2 3 4 5 6 7 9 10 12 13 14 15 16
13 14 13 13 12 9 9 8 7 6 5 5 4 2 2 3 3 2 2 2 2 2 2 2 1 1 2 3 4 6 7 9 10 11 12 13 15 16
12 13 13 14 13 12 10 10 8 7 6 5 4 3 3 3 4 3 2 1 1 1 1 0 0 1 2 3 4 5 7 9 10 11 12 13 14 15
10 11 11 13 15 13 10 10 10 8 7 6 5 3 4 4 4 3 3 2 1 1 0 0 1 1 2 3 4 5 7 9 10 11 12 12 13 14
11 10 10 12 14 15 14 14 13 11 10 7 5 6 6 5 4 4 4 3 2 1 1 1 1 0 1 2 4 5 7 8 9 10 11 12 13 13
11 10 8 9 12 11 11 12 11 11 12 10 9 8 7 7 8 6 4 3 2 2 1 0 0 1 1 3 4 5 7 8 9 10 11 11 12 13
11 11 11 10 11 12 10 8 6 6 8 7 7 7 7 8 8 7 6 5 3 1 1 1 0 1 2 3 4 5 7 8 9 10 10 11 12 12
9 10 11 11 14 16 12 10 8 5 7 11 10 10 12 13 11 8 6 4 2 1 1 1 0 1 1 2 3 6 7 8 9 10 11 11 12 11
7 8 12 13 16 17 13 12 11 8 9 9 9 10 9 10 11 7 7 5 3 2 1 2 1 1 1 2 2 4 5 7 10 10 11 12 12 7
7 7 8 14 17 17 14 11 13 12 10 10 9 7 7 6 5 4 4 5 4 2 3 3 2 1 1 1 2 2 3 4 5 7 10 12 11 9
8 7 8 14 16 16 12 14 17 14 9 9 8 7 6 5 5 5 6 6 5 4 5 4 2 2 1 0 2 3 4 3 3 4 6 10 9 10
6 10 12 14 14 12 15 17 14 10 10 9 8 6 5 6 6 5 6 7 7 6 5 3 3 2 2 2 1 2 2 3 4 4 5 5 5 5
7 10 13 13 11 12 12 11 8 9 9 9 8 7 6 6 5 4 4 4 4 3 4 4 2 3 2 1 1 1 2 2 4 5 5 5 5 4
8 7 7 8 8 7 7 7 7 8 9 8 9 8 8 6 5 4 4 3 3 2 1 2 3 2 1 2 1 1 2 2 3 4 4 5 4 5
9 8 9 8 9 9 8 8 7 8 8 9 9 9 8 7 6 5 4 4 4 3 1 1 1 2 2 1 1 1 1 2 3 4 3 3 4 5
8 8 9 9 9 8 8 8 7 7 8 9 9 9 8 8 7 6 5 4 4 3 2 1 1 2 2 1 3 1 1 2 3 3 3 2 3 5
7 9 9 8 9 9 8 8 8 8 8 8 9 9 8 8 7 6 6 5 4 3 2 1 1 2 2 1 1 2 3 2 2 3 3 3 3 6
7 7 8 8 8 8 8 8 9 9 9 9 9 9 8 8 7 7 6 7 5 3 3 2 1 1 1 2 1 2 3 5 4 2 2 3 3 4
7 7 7 7 8 9 9 9 9 9 9 8 8 8 8 8 8 8 7 6 4 4 3 1 1 2 2 2 2 1 2 4 6 7 5 3 1 2
7 7 8 8 8 9 9 9 9 9 8 9 8 8 8 8 7 7 7 6 5 5 4 2 2 2 2 2 2 1 2 3 3 4 4 8 7 6
Wind_Direction
197 193 194 193 190 185 174 172 173 190 214 204 191 191 190 185 188 186 192 203 210 222 242 260 270 281 294 309 316 319 321 324 327 327 327 328 328 328
194 193 196 194 188 184 179 178 181 184 202 195 188 170 176 178 185 179 186 195 204 222 238 250 263 275 295 314 318 319 322 324 326 327 327 328 328 328
193 194 196 186 185 185 178 175 179 174 193 196 150 147 161 168 161 162 173 180 196 215 223 234 249 265 296 312 314 317 323 327 328 326 327 328 329 328
194 194 195 188 186 184 182 183 185 181 180 187 170 165 168 170 156 160 165 170 175 195 206 220 227 263 294 308 313 319 325 326 326 326 328 329 330 329
193 195 193 185 188 186 183 183 184 177 174 172 172 158 151 149 145 147 139 133 142 167 182 198 221 268 303 311 317 323 328 327 327 328 328 331 332 330
193 194 193 190 188 185 185 183 176 170 163 160 160 153 147 140 148 158 158 133 102 88 81 101 95 31 334 329 330 331 330 329 329 329 330 331 332 331
193 194 193 190 185 184 184 180 175 175 168 167 167 159 164 162 178 164 164 137 110 89 84 78 95 54 350 343 335 331 333 333 332 331 333 334 333 333
190 190 189 185 183 180 179 177 176 177 179 178 180 181 186 177 158 151 143 139 195 162 120 268 97 306 321 320 328 333 335 336 336 336 335 335 336 337
188 187 187 186 177 176 174 170 173 176 178 179 181 186 179 176 162 156 158 153 169 161 123 214 344 291 308 325 334 339 343 342 340 339 340 340 340 339
189 186 182 179 177 168 163 161 164 174 177 174 174 173 166 161 162 157 145 119 93 74 93 144 316 301 328 328 344 354 351 348 346 345 346 345 342 341
189 183 179 179 170 159 158 158 156 150 132 135 134 134 136 138 136 125 128 124 129 158 79 109 102 320 314 309 333 353 353 351 352 352 352 347 343 343
182 180 178 175 168 162 165 164 166 163 146 133 123 117 118 125 130 140 150 144 137 163 171 117 110 57 338 311 322 339 348 350 354 355 353 348 347 349
180 178 176 169 168 168 168 171 168 156 148 141 132 122 113 111 107 102 117 141 145 163 163 133 126 115 132 296 317 327 344 344 347 347 347 346 349 352
180 175 169 165 166 166 165 157 150 143 142 139 137 137 134 130 120 105 95 88 94 132 150 138 141 156 143 233 291 320 327 335 347 342 339 340 345 347
170 163 159 160 157 159 153 149 147 147 146 144 147 147 141 138 128 114 94 86 76 74 97 118 140 151 155 186 241 306 323 328 342 342 337 336 334 337
146 143 142 143 143 142 145 145 148 152 151 149 145 138 131 131 132 131 124 113 90 59 45 64 106 142 160 207 211 273 305 312 329 334 332 330 330 331
144 140 141 142 145 145 144 144 144 144 142 140 139 140 140 139 137 131 123 114 110 123 66 29 39 72 159 176 170 282 312 319 320 332 336 336 330 333
146 154 155 156 157 156 155 152 150 150 148 144 144 145 148 147 139 129 121 125 126 127 123 78 44 41 36 22 213 248 321 318 328 332 335 332 333 335
152 160 162 162 160 157 158 157 155 152 148 146 148 149 147 144 140 138 136 130 128 126 125 119 90 92 75 7 330 324 304 328 333 333 330 324 317 320
159 162 163 161 159 158 158 154 149 146 146 147 148 148 147 145 142 143 145 143 141 133 123 119 126 142 159 186 262 318 332 328 324 328 329 322 314 314
161 156 155 157 156 155 153 151 151 149 149 150 150 148 148 146 145 145 145 142 135 139 148 169 216 118 120 96 64 353 338 349 352 326 327 337 342 351
157 152 151 152 153 151 149 149 147 146 148 148 149 148 148 146 147 147 146 145 145 146 146 140 96 83 85 96 83 16 350 351 4 13 12 12 5 354
155 151 150 150 149 148 148 148 147 149 151 149 148 148 146 144 143 142 141 138 136 133 124 107 71 67 75 90 86 52 19 2 1 11 9 7 7 360
Height
1421 1426 1431 1436 1441 1445 1449 1452 1455 1457 1460 1462 1466 1469 1471 1474 1475 1477 1478 1478 1478 1478 1478 1477 1475 1474 1472 1470 1468 1466 1464 1461 1458 1456 1453 1450 1447 1444
1414 1420 1425 1431 1436 1440 1443 1447 1451 1453 1455 1457 1460 1463 1466 1469 1471 1472 1473 1474 1474 1474 1473 1472 1471 1470 1468 1466 1464 1462 1459 1457 1454 1452 1449 1446 1443 1440
1408 1413 1419 1424 1429 1434 1438 1441 1445 1449 1451 1453 1456 1459 1462 1464 1466 1467 1468 1469 1469 1469 1469 1468 1467 1465 1464 1462 1460 1458 1455 1453 1450 1448 1445 1442 1439 1436
1401 1407 1412 1418 1423 1428 1432 1436 1440 1444 1446 1448 1451 1454 1457 1459 1461 1463 1464 1464 1465 1465 1465 1464 1463 1461 1460 1458 1456 1454 1452 1449 1447 1444 1442 1439 1435 1432
1395 1400 1406 1411 1417 1422 1427 1431 1434 1438 1442 1444 1446 1449 1452 1454 1456 1458 1459 1460 1460 1460 1460 1460 1459 1457 1456 1454 1452 1450 1448 1446 1444 1441 1438 1435 1432 1429
1389 1395 1400 1405 1411 1416 1421 1425 1429 1433 1436 1439 1441 1444 1446 1449 1451 1453 1454 1455 1456 1456 1456 1456 1455 1454 1452 1450 1449 1447 1445 1443 1440 1438 1435 1432 1429 1426
1384 1389 1395 1400 1406 1411 1415 1419 1424 1427 1430 1433 1436 1438 1441 1443 1446 1448 1449 1451 1452 1452 1452 1452 1451 1450 1449 1447 1445 1444 1442 1440 1437 1434 1431 1429 1426 1422
1379 1384 1390 1395 1400 1406 1411 1415 1419 1422 1425 1428 1430 1433 1436 1439 1441 1443 1445 1446 1447 1449 1449 1448 1448 1446 1445 1444 1442 1441 1439 1437 1434 1431 1429 1426 1423 1420
1374 1379 1385 1390 1395 1400 1405 1409 1413 1417 1420 1423 1425 1428 1431 1434 1437 1439 1441 1442 1443 1444 1445 1444 1444 1443 1442 1441 1439 1438 1437 1434 1432 1429 1426 1423 1420 1417
1370 1374 1380 1384 1389 1395 1399 1403 1407 1411 1414 1418 1421 1424 1428 1431 1433 1435 1437 1439 1440 1441 1442 1441 1441 1440 1439 1438 1437 1436 1434 1432 1429 1427 1424 1421 1418 1415
1365 1370 1375 1380 1385 1389 1394 1398 1402 1406 1410 1414 1417 1421 1424 1427 1429 1431 1433 1435 1436 1437 1438 1438 1438 1437 1437 1436 1435 1434 1432 1430 1427 1424 1421 1418 1416 1413
1361 1365 1370 1375 1380 1384 1389 1393 1397 1401 1405 1409 1413 1417 1420 1423 1425 1428 1430 1431 1432 1434 1435 1435 1435 1435 1434 1434 1433 1432 1430 1428 1425 1423 1420 1417 1414 1410
1355 1360 1365 1370 1375 1379 1384 1389 1393 1397 1401 1406 1409 1413 1416 1419 1422 1424 1427 1429 1430 1431 1432 1432 1432 1432 1432 1431 1431 1430 1428 1425 1423 1421 1418 1415 1412 1409
1351 1356 1360 1365 1370 1375 1380 1384 1389 1394 1398 1402 1405 1409 1412 1415 1419 1421 1424 1426 1427 1429 1429 1430 1430 1430 1430 1429 1428 1427 1426 1424 1422 1419 1417 1414 1411 1408
1348 1352 1357 1362 1366 1371 1376 1380 1385 1389 1394 1398 1401 1405 1409 1413 1416 1418 1421 1423 1425 1426 1427 1428 1428 1428 1428 1427 1426 1425 1423 1422 1421 1418 1415 1413 1409 1406
1345 1349 1354 1358 1363 1368 1372 1377 1382 1386 1390 1394 1398 1402 1406 1410 1413 1416 1418 1420 1422 1423 1425 1426 1426 1427 1426 1426 1425 1424 1423 1421 1419 1417 1415 1412 1409 1406
1340 1345 1350 1354 1359 1364 1369 1374 1378 1382 1386 1390 1395 1399 1403 1407 1410 1413 1416 1418 1419 1421 1423 1424 1424 1425 1425 1424 1424 1423 1422 1420 1419 1416 1414 1411 1409 1406
1338 1341 1346 1351 1355 1360 1365 1370 1375 1379 1383 1387 1392 1396 1400 1403 1407 1410 1413 1416 1418 1419 1421 1422 1423 1423 1424 1423 1423 1422 1421 1419 1418 1416 1414 1411 1408 1406
1334 1338 1343 1347 1352 1357 1362 1367 1371 1376 1380 1385 1389 1393 1397 1401 1404 1408 1411 1414 1416 1418 1419 1421 1421 1421 1421 1421 1422 1421 1420 1418 1417 1415 1413 1411 1408 1406
1331 1335 1340 1345 1350 1354 1359 1364 1369 1374 1378 1383 1387 1391 1395 1398 1402 1405 1409 1412 1414 1416 1418 1419 1419 1420 1420 1421 1420 1420 1419 1418 1416 1414 1413 1410 1408 1407
1329 1333 1338 1342 1347 1352 1357 1362 1367 1371 1376 1380 1385 1389 1393 1397 1400 1404 1407 1410 1412 1414 1416 1417 1418 1419 1419 1420 1419 1419 1419 1418 1416 1414 1412 1410 1408 1406
1327 1331 1335 1340 1345 1350 1355 1360 1365 1369 1374 1378 1382 1387 1391 1395 1399 1402 1405 1408 1411 1413 1414 1416 1417 1418 1418 1418 1418 1418 1418 1418 1416 1415 1413 1411 1409 1407
1325 1329 1334 1338 1343 1349 1353 1358 1363 1367 1372 1376 1381 1385 1389 1393 1397 1401 1404 1407 1409 1412 1413 1415 1416 1417 1417 1418 1418 1418 1418 1417 1416 1415 1414 1412 1411 1410